Jonesboro, AR

10:46 PM CDT on May 20, 2018 (GMT -0500)
Jonesboro Municipal

Weather History for KJBR - August, 2014

Change the Weather History Date:

Saturday, August 30, 2014

  Actual Average Record
Temperature  
Mean Temperature 77 °F 78 °F  
Max Temperature 81 °F 88 °F 104 °F (2000)
Min Temperature 73 °F 67 °F 53 °F (1986)
Degree Days  
Heating Degree Days 0 0  
Month to date heating degree days 0 0  
Since 1 June heating degree days 0 1  
Since 1 July heating degree days 0 0  
Cooling Degree Days 12 13  
Month to date cooling degree days 476 448  
Year to date cooling degree days 1444 1535  
Since 1 June cooling degree days 1197 1322  
Growing Degree Days 26 (Base 50)    
Moisture  
Dew Point 72 °F    
Average Humidity 82    
Maximum Humidity 94    
Minimum Humidity 69    
Precipitation  
Precipitation 0.98 in 0.09 in 3.16 in (1978)
Month to date precipitation 1.52 2.46  
Year to date precipitation 33.63 31.03  
Snow  
Snow 0.00 in - - ()
Month to date snowfall 0.0  
Since 1 June snowfall 0.0  
Snow Depth 0.00 in    
Sea Level Pressure  
Sea Level Pressure 29.98 in    
Wind  
Wind Speed 7 mph (South)    
Max Wind Speed 16 mph    
Max Gust Speed 20 mph    
Visibility 10 miles    
Events Rain    
T = Trace of Precipitation, MM = Missing Value Source: NWS Daily Summary

Daily Weather History Graph

Daily Weather History Graph

Search for Another Location

Airport or City:

Astronomy

Aug. 30, 2014 Rise Set
Actual Time 6:33 AM CDT 7:32 PM CDT
Civil Twilight 6:06 AM CDT 7:58 PM CDT
Nautical Twilight 5:35 AM CDT 8:29 PM CDT
Astronomical Twilight 5:03 AM CDT 9:02 PM CDT
Moon 11:10 AM CDT (8/30) 10:18 PM CDT (8/30)
Length of Visible Light 13h 52m
Length of Day
12h 59m
Waxing Crescent, 23% of the Moon is Illuminated
Aug 30
Waxing Crescent
Sep 2
First Quarter
Sep 8
Full
Sep 15
Last Quarter
Sep 24
New

Hourly Weather History & Observations

Time (CDT) Temp. Heat Index Dew Point Humidity Pressure Visibility Wind Dir Wind Speed Gust Speed Precip Events Conditions
12:53 AM 73.0 °F - 72.0 °F 96% 29.98 in 10.0 mi Calm Calm - N/A   Scattered Clouds
1:53 AM 73.0 °F - 72.0 °F 96% 29.97 in 10.0 mi Calm Calm - N/A   Clear
2:53 AM 73.0 °F - 71.1 °F 93% 29.97 in 10.0 mi Calm Calm - N/A   Scattered Clouds
3:53 AM 73.0 °F - 72.0 °F 96% 29.97 in 10.0 mi South 3.5 mph - N/A   Partly Cloudy
4:53 AM 73.0 °F - 72.0 °F 96% 29.97 in 10.0 mi Calm Calm - N/A   Clear
5:53 AM 73.0 °F - 72.0 °F 96% 29.98 in 10.0 mi Calm Calm - N/A   Clear
6:53 AM 73.9 °F - 72.0 °F 93% 29.98 in 10.0 mi South 3.5 mph - N/A   Clear
7:53 AM 75.0 °F - 73.0 °F 94% 29.99 in 10.0 mi SSW 6.9 mph - N/A   Partly Cloudy
8:53 AM 77.0 °F - 72.0 °F 84% 30.00 in 10.0 mi SW 10.4 mph - N/A   Clear
9:53 AM 78.1 °F - 72.0 °F 81% 30.01 in 10.0 mi SW 6.9 mph - N/A   Mostly Cloudy
10:53 AM 79.0 °F - 73.0 °F 82% 30.03 in 10.0 mi SW 9.2 mph - N/A Rain Light Rain
11:53 AM 80.1 °F 83.8 °F 72.0 °F 76% 30.03 in 10.0 mi SSW 9.2 mph - N/A   Overcast
12:53 PM 79.0 °F - 71.1 °F 77% 30.02 in 10.0 mi South 9.2 mph - N/A Rain Light Rain
1:53 PM 79.0 °F - 72.0 °F 79% 29.99 in 10.0 mi SSE 11.5 mph - N/A   Scattered Clouds
2:53 PM 80.1 °F 83.6 °F 71.1 °F 74% 29.98 in 10.0 mi South 12.7 mph - N/A   Partly Cloudy
3:53 PM 80.1 °F 83.6 °F 71.1 °F 74% 29.96 in 10.0 mi South 8.1 mph - N/A   Partly Cloudy
4:53 PM 80.1 °F 83.2 °F 70.0 °F 71% 29.96 in 10.0 mi SSE 9.2 mph - N/A   Clear
5:53 PM 80.1 °F 83.8 °F 72.0 °F 76% 29.96 in 10.0 mi SSE 8.1 mph - N/A   Clear
6:40 PM 78.8 °F - 71.6 °F 78% 29.98 in 10.0 mi South 10.4 mph - N/A   Mostly Cloudy
6:53 PM 79.0 °F - 73.0 °F 82% 29.97 in 10.0 mi South 12.7 mph 19.6 mph N/A   Mostly Cloudy
7:05 PM 78.8 °F - 71.6 °F 78% 29.98 in 10.0 mi South 8.1 mph - N/A   Scattered Clouds
7:53 PM 77.0 °F - 73.0 °F 88% 29.97 in 10.0 mi SSE 9.2 mph - N/A   Clear
8:53 PM 75.9 °F - 70.0 °F 82% 29.97 in 10.0 mi SSE 8.1 mph - N/A   Clear
9:53 PM 75.2 °F - 69.8 °F 83% 29.98 in 10.0 mi South 9.2 mph - N/A   Clear
10:53 PM 73.9 °F - 71.1 °F 91% 29.97 in 10.0 mi South 6.9 mph - N/A   Scattered Clouds
11:53 PM 73.9 °F - 71.1 °F 91% 29.96 in 10.0 mi SSE 8.1 mph - N/A   Partly Cloudy